Location: Mesa Verde
(33.6055°N, 114.7275°W)
Time: 10:07:51
(UTC+00:00)

N. Korean satellite - Pass Details

Date: 03 October 2021
Orbit: 450 x 495 km, 97.3° (Epoch: 15 October)

Event Time Altitude Azimuth Distance (km) Brightness Sun altitude
Rises 12:21:38 0° 22° (NNE) 2,559 10.6 -16.1°
Reaches altitude 10° 12:23:51 10° 32° (NNE) 1,681 9.8 -15.6°
Maximum altitude 12:27:09 33° 98° (E) 847 8.5 -14.9°
Drops below altitude 10° 12:30:27 10° 164° (SSE) 1,683 9.4 -14.3°
Sets 12:32:40 0° 173° (S) 2,564 10.3 -13.8°
